Location: Unspecified
(0.0000°N, 0.0000°E)
Time: 02:00:37
(UTC+00:00)

JUGNU - Pass Details

Date: 15 December 2017
Orbit: 837 x 864 km, 20.0° (Epoch: 16 January)

Event Time Altitude Azimuth Distance (km) Brightness Sun altitude
Rises 20:59:09 0° 234° (SW) 3,396 ? -41.3°
Reaches altitude 10° 21:01:57 10° 225° (SW) 2,455 ? -41.9°
Enters shadow 21:03:31 17° 215° (SW) 1,981 ? -42.2°
